Weather History for Cody, WY

Change the Weather History Date:

Friday, November 16, 2012

  Actual Average Record
Temperature  
Mean Temperature 34 °F -  
Max Temperature 46 °F 46 °F 69 °F (1936)
Min Temperature 21 °F 23 °F -21 °F (1959)
Degree Days  
Heating Degree Days 32    
Moisture  
Dew Point 22 °F    
Average Humidity 57    
Maximum Humidity 86    
Minimum Humidity 38    
Precipitation  
Precipitation 0.00 in - - ()
Sea Level Pressure  
Sea Level Pressure 30.01 in    
Wind  
Wind Speed 6 mph (ESE)    
Max Wind Speed 15 mph    
Max Gust Speed 24 mph    
Visibility 10 miles    
Events      
Averages and records for this station are not official NWS values.
T = Trace of Precipitation, MM = Missing Value Source: NWS Daily Summary

Daily Weather History Graph

Daily Weather History Graph

Search for Another Location

Airport:

Trip Planner

Search our weather history database for the weather conditions in past years. The results will help you decide how hot, cold, wet, or windy it might be!

Date:

Astronomy

Nov. 16, 2012 Rise Set
Actual Time 7:14 AM MST 4:46 PM MST
Civil Twilight 6:42 AM MST 5:18 PM MST
Nautical Twilight 6:07 AM MST 5:53 PM MST
Astronomical Twilight 5:33 AM MST 6:28 PM MST
Moon 10:13 AM MST (11/16) 7:48 PM MST (11/16)
Length of Visible Light 10h 35m
Length of Day
9h 32m
Waxing Crescent, 12% of the Moon is Illuminated
Nov 16
Waxing Crescent
Nov 20
First Quarter
Nov 28
Full
Dec 6
Last Quarter
Dec 13
New

Hourly Weather History & Observations

Time (MST) Temp. Windchill Dew Point Humidity Pressure Visibility Wind Dir Wind Speed Gust Speed Precip Events Conditions
12:15 AM 35.6 °F 28.0 °F 14.0 °F 41% 30.10 in 10.0 mi South 10.4 mph - N/A   Clear
12:35 AM 35.6 °F 29.2 °F 12.2 °F 38% 30.09 in 10.0 mi South 8.1 mph - N/A   Clear
12:55 AM 32.0 °F 24.8 °F 14.0 °F 48% 30.09 in 10.0 mi SSE 8.1 mph - N/A   Clear
1:15 AM 33.8 °F 26.4 °F 14.0 °F 44% 30.09 in 10.0 mi South 9.2 mph - N/A   Clear
1:35 AM 33.8 °F 26.4 °F 14.0 °F 44% 30.07 in 10.0 mi South 9.2 mph - N/A   Clear
1:55 AM 32.0 °F 23.6 °F 12.2 °F 44% 30.07 in 10.0 mi South 10.4 mph - N/A   Clear
2:15 AM 32.0 °F 27.5 °F 10.4 °F 41% 30.08 in 10.0 mi South 4.6 mph - N/A   Clear
2:35 AM 32.0 °F - 12.2 °F 44% 30.08 in 10.0 mi Calm Calm - N/A   Clear
2:55 AM 32.0 °F 28.7 °F 15.8 °F 51% 30.07 in 10.0 mi NE 3.5 mph - N/A   Clear
3:15 AM 30.2 °F - 15.8 °F 55% 30.07 in 10.0 mi Calm Calm - N/A   Clear
3:35 AM 28.4 °F - 12.2 °F 51% 30.06 in 10.0 mi Calm Calm - N/A   Clear
3:55 AM 30.2 °F - 15.8 °F 55% 30.05 in 10.0 mi Calm Calm - N/A   Clear
4:16 AM 30.2 °F - 15.8 °F 55% 30.05 in 10.0 mi Calm Calm - N/A   Clear
4:35 AM 28.4 °F - 17.6 °F 64% 30.05 in 10.0 mi Calm Calm - N/A   Clear
4:55 AM 26.6 °F - 15.8 °F 64% 30.05 in 10.0 mi Calm Calm - N/A   Clear
5:15 AM 26.6 °F - 14.0 °F 59% 30.05 in 10.0 mi Calm Calm - N/A   Clear
5:35 AM 24.8 °F - 14.0 °F 64% 30.05 in 10.0 mi Calm Calm - N/A   Clear
6:15 AM 21.2 °F 16.4 °F 15.8 °F 80% 30.04 in 10.0 mi NE 3.5 mph - N/A   Clear
6:35 AM 24.8 °F - 21.2 °F 86% 30.04 in 10.0 mi Calm Calm - N/A   Clear
7:15 AM 21.2 °F - 17.6 °F 86% 30.04 in 10.0 mi Calm Calm - N/A   Clear
7:35 AM 23.0 °F - 17.6 °F 80% 30.05 in 10.0 mi Calm Calm - N/A   Clear
7:55 AM 26.6 °F 20.0 °F 19.4 °F 74% 30.05 in 10.0 mi South 5.8 mph - N/A   Clear
8:15 AM 28.4 °F 22.2 °F 19.4 °F 69% 30.05 in 10.0 mi South 5.8 mph - N/A   Clear
8:35 AM 28.4 °F 22.2 °F 19.4 °F 69% 30.04 in 10.0 mi South 5.8 mph - N/A   Clear
8:55 AM 30.2 °F - 21.2 °F 69% 30.05 in 10.0 mi Calm Calm - N/A   Clear
9:15 AM 28.4 °F - 21.2 °F 74% 30.04 in 10.0 mi Calm Calm - N/A   Clear
9:35 AM 32.0 °F - 23.0 °F 69% 30.03 in 10.0 mi Calm Calm - N/A   Clear
9:55 AM 39.2 °F - 24.8 °F 56% 30.03 in 10.0 mi Calm Calm - N/A   Clear
10:15 AM 42.8 °F 39.3 °F 23.0 °F 46% 30.03 in 10.0 mi SSE 5.8 mph - N/A   Clear
10:35 AM 44.6 °F 40.2 °F 23.0 °F 43% 30.02 in 10.0 mi SE 8.1 mph - N/A   Clear
10:55 AM 46.4 °F 43.5 °F 24.8 °F 43% 30.02 in 10.0 mi SSE 5.8 mph - N/A   Clear
11:35 AM 44.6 °F 42.2 °F 24.8 °F 46% 30.00 in 10.0 mi NE 4.6 mph - N/A   Clear
12:15 PM 41.0 °F 36.4 °F 26.6 °F 57% 29.99 in 10.0 mi NNE 6.9 mph - N/A   Clear
12:35 PM 42.8 °F 38.6 °F 26.6 °F 53% 29.97 in 10.0 mi North 6.9 mph - N/A   Clear
12:55 PM 41.0 °F 36.4 °F 26.6 °F 57% 29.97 in 10.0 mi North 6.9 mph - N/A   Clear
1:15 PM 42.8 °F 39.3 °F 26.6 °F 53% 29.97 in 10.0 mi NNE 5.8 mph - N/A   Clear
1:35 PM 42.8 °F 37.5 °F 26.6 °F 53% 29.96 in 10.0 mi NNE 9.2 mph - N/A   Clear
2:15 PM 42.8 °F 38.6 °F 26.6 °F 53% 29.96 in 10.0 mi NE 6.9 mph - N/A   Scattered Clouds
2:36 PM 42.8 °F 38.0 °F 26.6 °F 53% 29.96 in 10.0 mi ENE 8.1 mph - N/A   Overcast
2:55 PM 41.0 °F 37.1 °F 26.6 °F 57% 29.96 in 10.0 mi NNE 5.8 mph - N/A   Overcast
3:15 PM 39.2 °F 34.2 °F 26.6 °F 61% 29.96 in 10.0 mi NE 6.9 mph - N/A   Mostly Cloudy
3:35 PM 39.2 °F 35.0 °F 26.6 °F 61% 29.96 in 10.0 mi North 5.8 mph - N/A   Overcast
3:55 PM 39.2 °F 37.0 °F 26.6 °F 61% 29.96 in 10.0 mi ENE 3.5 mph - N/A   Overcast
4:15 PM 37.4 °F - 26.6 °F 65% 29.97 in 10.0 mi Calm Calm - N/A   Mostly Cloudy
4:35 PM 39.2 °F 37.0 °F 26.6 °F 61% 29.96 in 10.0 mi East 3.5 mph - N/A   Mostly Cloudy
4:55 PM 39.2 °F 33.6 °F 24.8 °F 56% 29.96 in 10.0 mi SSE 8.1 mph - N/A   Clear
5:16 PM 37.4 °F 32.8 °F 26.6 °F 65% 29.96 in 10.0 mi NNE 5.8 mph - N/A   Clear
5:35 PM 33.8 °F 27.7 °F 26.6 °F 75% 29.97 in 10.0 mi NE 6.9 mph - N/A   Clear
5:55 PM 33.8 °F 27.7 °F 26.6 °F 75% 29.98 in 10.0 mi NE 6.9 mph - N/A   Scattered Clouds
6:15 PM 33.8 °F 26.4 °F 26.6 °F 75% 29.97 in 10.0 mi NE 9.2 mph - N/A   Scattered Clouds
6:35 PM 35.6 °F 30.7 °F 26.6 °F 70% 29.97 in 10.0 mi NNE 5.8 mph - N/A   Partly Cloudy
6:55 PM 35.6 °F - 26.6 °F 70% 29.98 in 10.0 mi Calm Calm - N/A   Mostly Cloudy
7:15 PM 33.8 °F 29.6 °F 24.8 °F 70% 29.98 in 10.0 mi NE 4.6 mph - N/A   Partly Cloudy
7:35 PM 42.8 °F 40.1 °F 26.6 °F 53% 29.98 in 10.0 mi West 4.6 mph - N/A   Clear
7:55 PM 44.6 °F 40.2 °F 26.6 °F 49% 29.97 in 10.0 mi West 8.1 mph 17.3 mph N/A   Partly Cloudy
8:35 PM 46.4 °F 41.9 °F 26.6 °F 46% 29.98 in 10.0 mi WSW 9.2 mph 17.3 mph N/A   Overcast
9:15 PM 46.4 °F 40.7 °F 26.6 °F 46% 29.98 in 10.0 mi West 12.7 mph 19.6 mph N/A   Mostly Cloudy
9:35 PM 46.4 °F 42.9 °F 26.6 °F 46% 29.99 in 10.0 mi SW 6.9 mph - N/A   Mostly Cloudy
9:55 PM 46.4 °F 41.5 °F 26.6 °F 46% 29.99 in 10.0 mi WSW 10.4 mph - N/A   Overcast
10:15 PM 46.4 °F 40.1 °F 26.6 °F 46% 29.99 in 10.0 mi WSW 15.0 mph 24.2 mph N/A   Mostly Cloudy
10:55 PM 46.4 °F 40.4 °F 26.6 °F 46% 29.99 in 10.0 mi SSW 13.8 mph - N/A   Overcast
11:15 PM 46.4 °F 42.4 °F 26.6 °F 46% 30.00 in 10.0 mi SW 8.1 mph 19.6 mph N/A   Overcast
11:35 PM 46.4 °F 41.5 °F 26.6 °F 46% 30.00 in 10.0 mi South 10.4 mph - N/A   Mostly Cloudy
11:55 PM 46.4 °F 41.1 °F 26.6 °F 46% 30.00 in 10.0 mi WSW 11.5 mph 18.4 mph N/A   Partly Cloudy